Creek Data

    Home     View Charts     View Raw Data     Messages

ID Distance Battery Voltage Battery Current Internal Temp Internal Humidity External Temp Solar Input rssi snr Time Stamp Record
68585 15.1 3.71 0 59 47 59 5.1 -74 8 03/11/2026 10:15 AM 51455
68584 15.0 3.92 6 58 47 58 5.1 -73 8 03/11/2026 10:00 AM 51454
68583 15.0 3.94 0 56 46 57 5.1 -73 7 03/11/2026 09:45 AM 51453
68582 15.0 3.71 6 54 47 56 5.1 -74 8 03/11/2026 09:30 AM 51452
68581 15.0 3.71 6 52 47 55 5.1 -74 8 03/11/2026 09:15 AM 51451
68580 14.9 3.71 5 49 48 52 5.1 -73 8 03/11/2026 09:00 AM 51450
68579 14.9 3.71 0 47 48 50 5.1 -74 8 03/11/2026 08:45 AM 51449
68578 14.8 3.80 11 45 49 48 4.5 -75 9 03/11/2026 08:30 AM 51448
68577 14.9 3.73 22 43 50 47 4.5 -75 9 03/11/2026 08:15 AM 51447
68576 14.8 3.89 0 42 51 46 4.5 -75 8 03/11/2026 08:00 AM 51446
68575 14.8 3.84 6 41 51 46 4.5 -74 9 03/11/2026 07:45 AM 51445
68574 14.8 3.67 -7 41 51 44 4.5 -75 8 03/11/2026 07:30 AM 51444
68573 14.8 3.48 -5 42 51 45 1.1 -75 9 03/11/2026 07:15 AM 51443
68572 14.8 3.50 -5 42 51 45 0 -75 9 03/11/2026 07:00 AM 51442
68571 14.8 3.69 -6 42 51 44 0 -76 9 03/11/2026 06:45 AM 51441
68570 14.8 3.48 -5 42 51 44 0 -76 9 03/11/2026 06:30 AM 51440
68569 14.9 3.69 -5 43 51 45 0 -76 9 03/11/2026 06:15 AM 51439
68568 14.8 3.51 -5 43 51 46 0 -76 10 03/11/2026 06:00 AM 51438
68567 14.8 3.69 -5 43 51 46 0 -76 9 03/11/2026 05:45 AM 51437
68566 14.8 3.47 -5 43 51 45 0 -76 9 03/11/2026 05:30 AM 51436
68565 14.8 3.53 -5 43 51 46 0.1 -76 9 03/11/2026 05:15 AM 51435
68564 14.8 3.55 -5 44 51 45 0 -75 9 03/11/2026 04:45 AM 51433
68563 14.8 3.70 -5 44 51 46 0 -75 8 03/11/2026 04:30 AM 51432
68562 14.8 3.55 -5 44 51 46 0 -75 8 03/11/2026 04:15 AM 51431
68561 14.8 3.54 -5 44 51 46 0 -75 8 03/11/2026 04:00 AM 51430